TimeCDT,TemperatureF,Dew PointF,Humidity,Sea Level PressureIn,VisibilityMPH,Wind Direction,Wind SpeedMPH,Gust SpeedMPH,PrecipitationIn,Events,Conditions,WindDirDegrees,DateUTC
12:53 AM,79.0,73.0,82,29.96,10.0,ENE,5.8,-,N/A,,Clear,70,2013-08-02 05:53:00
1:53 AM,78.1,73.0,84,29.96,10.0,ENE,5.8,-,N/A,,Clear,60,2013-08-02 06:53:00
2:53 AM,77.0,73.0,88,29.97,9.0,ENE,5.8,-,N/A,,Clear,60,2013-08-02 07:53:00
3:53 AM,75.0,72.0,90,29.97,7.0,ENE,4.6,-,N/A,,Clear,70,2013-08-02 08:53:00
4:53 AM,75.0,72.0,90,29.97,7.0,Calm,Calm,-,N/A,,Clear,0,2013-08-02 09:53:00
5:53 AM,73.9,71.1,91,29.97,5.0,Calm,Calm,-,N/A,,Clear,0,2013-08-02 10:53:00
6:53 AM,73.0,71.1,93,29.98,2.5,ENE,4.6,-,N/A,,Clear,60,2013-08-02 11:53:00
7:05 AM,73.4,71.6,94,29.98,4.0,ENE,3.5,-,N/A,,Clear,60,2013-08-02 12:05:00
7:53 AM,77.0,72.0,84,29.99,6.0,East,4.6,-,N/A,,Haze,80,2013-08-02 12:53:00
8:53 AM,81.0,73.0,77,30.00,8.0,Calm,Calm,-,N/A,,Clear,0,2013-08-02 13:53:00
9:53 AM,84.9,75.0,72,30.00,6.0,Calm,Calm,-,N/A,,Haze,0,2013-08-02 14:53:00
10:53 AM,89.1,75.0,63,29.99,10.0,Variable,3.5,-,N/A,,Clear,0,2013-08-02 15:53:00
11:53 AM,91.0,73.0,55,30.00,10.0,Variable,4.6,-,N/A,,Partly Cloudy,0,2013-08-02 16:53:00
12:53 PM,93.9,72.0,49,30.00,10.0,North,5.8,-,N/A,,Partly Cloudy,360,2013-08-02 17:53:00
1:53 PM,93.9,72.0,49,29.98,10.0,SW,3.5,-,N/A,,Mostly Cloudy,230,2013-08-02 18:53:00
2:53 PM,95.0,72.0,47,29.96,10.0,Calm,Calm,-,N/A,,Clear,0,2013-08-02 19:53:00
3:53 PM,96.1,73.0,47,29.94,10.0,Calm,Calm,-,N/A,,Partly Cloudy,0,2013-08-02 20:53:00
4:53 PM,96.1,71.1,44,29.94,10.0,Calm,Calm,-,N/A,,Clear,0,2013-08-02 21:53:00
5:53 PM,97.0,71.1,43,29.93,10.0,Calm,Calm,-,N/A,,Clear,0,2013-08-02 22:53:00
6:53 PM,93.0,73.0,52,29.94,10.0,ENE,3.5,-,N/A,,Clear,60,2013-08-02 23:53:00
7:53 PM,87.1,75.9,69,29.95,10.0,ENE,3.5,-,N/A,,Clear,70,2013-08-03 00:53:00
8:53 PM,84.0,75.9,76,29.96,10.0,Calm,Calm,-,N/A,,Clear,0,2013-08-03 01:53:00
9:53 PM,81.0,75.0,82,29.98,10.0,Calm,Calm,-,N/A,,Clear,0,2013-08-03 02:53:00
10:53 PM,82.9,73.9,74,29.98,10.0,SSE,3.5,-,N/A,,Clear,150,2013-08-03 03:53:00
11:53 PM,82.9,73.0,72,29.98,10.0,Variable,3.5,-,N/A,,Clear,0,2013-08-03 04:53:00